Flag for U.S.A. Weather past 2 weeks in Everett, Washington, U.S.A.

Now
47 °F

Clear.


Feels Like: 43 °F
Forecast: 43 / 49 °F
Wind: 7 mph from North

Location: Snohomish County Airport

Current Time: Dec 22, 2014 at 5:09:37 AM

Latest Report: Dec 22, 2014 at 3:53 AM


Visibility: 10 mi

Pressure: 30.20 "Hg

Humidity: 66%

Dew point: 36 °F

Location of EverettLocation

Historic Weather in Everett — Graph

°F

Everett temperature yesterday

Maximum temperature yesterday: 53 °F (at 12:53 AM)
Minimum temperature yesterday: 46 °F (at 11:53 PM)
Average temperature yesterday: 49 °F

Past Weeks' High & Low Weather Summary

 TemperatureHumidityPressure
High62 °F (Dec 10, 9:53 AM)97% (Dec 13, 8:02 PM)30.24 "Hg (Dec 13, 8:02 PM)
Low33 °F (Dec 15, 2:53 AM)38% (Dec 15, 12:53 PM)29.15 "Hg (Dec 11, 3:53 PM)
Average48 °F76%29.84 "Hg
* Reported Dec 7 3:53 AM — Dec 22 3:53 AM, Everett, Weather by CustomWeather, © 2014

Note: Actual official high and low records may vary slightly from our data, if they occured in-between our weather recording intervals... More about our weather records

Advertising

Everett weather history for previous 24 hours

 ConditionsComfort  
Time TempWeatherWind HumidityBarometerVisibility
3:53 AM
Dec 22
47 °FClear.7 mph66%30.20 "Hg10 mi
2:53 AM46 °FPassing clouds.6 mph79%30.18 "Hg10 mi
1:53 AM47 °FPassing clouds.3 mph80%30.16 "Hg10 mi
12:53 AM44 °FPartly cloudy.No wind93%30.14 "Hg8 mi
11:53 PM
Dec 21
46 °FClear.3 mph89%30.11 "Hg9 mi
10:53 PM48 °FPassing clouds.No wind83%30.09 "Hg10 mi
9:53 PM48 °FClear.8 mph86%30.07 "Hg10 mi
8:53 PM47 °FClear.10 mph90%30.06 "Hg10 mi
7:53 PM48 °FClear.6 mph89%30.06 "Hg10 mi
6:53 PM50 °FClear.8 mph83%30.06 "Hg10 mi
5:53 PM50 °FPassing clouds.No wind86%30.04 "Hg10 mi
4:53 PM50 °FPassing clouds.5 mph86%30.02 "Hg10 mi
3:53 PM51 °FScattered clouds.No wind77%30.01 "Hg10 mi
2:53 PM50 °FBroken clouds.5 mph83%30.00 "Hg10 mi
1:53 PM51 °FMore clouds than sun.No wind83%29.98 "Hg10 mi
12:53 PM51 °FBroken clouds.6 mph83%29.96 "Hg10 mi
11:57 AM49 °FMore clouds than sun.10 mph86%29.94 "Hg10 mi
10:53 AM48 °FScattered clouds.7 mph89%29.93 "Hg10 mi
9:53 AM48 °FScattered clouds.No wind86%29.91 "Hg10 mi
8:53 AM48 °FScattered clouds.3 mph86%29.89 "Hg10 mi
7:53 AM47 °FPassing clouds.No wind90%29.85 "Hg10 mi
6:53 AM47 °FLight rain. Fog.6 mph90%29.81 "Hg6 mi
5:53 AM47 °FOvercast.3 mph93%29.79 "Hg10 mi
5:02 AM48 °FHeavy rain. Overcast.6 mph83%29.76 "Hg2 mi
Weather by CustomWeather, © 2014

See weather overviewHow to use our weather pages